Date String (YYYY-MM-DD hh:mm:ss) UTC,Instrument flags,absolute air pressure of the measurement (hPa),sample flow rate (lpm),inlet stack bypass flow (lpm),air temperature of the measurement (°C),ambient temperature measured by the external sensor (°C),aerosol sample conditioner tube jacket temperature (°C),OPC LED temperature (°C),internal box temperature (°C),relative humidity of the measurement (%),span deviation,mass concentration of particles derived from Lorenz-Mie calculation of OPC scattering (μg/m³),mass concentration of particles derived from Lorenz-Mie calculation of OPC scattering (μg/m³),mass concentration of particles derived from Lorenz-Mie calculation of OPC scattering (μg/m³)
DateTimeUTC,F1_M11,P_M11,Q1_M11,Q2_M11,T1_M11,T2_M11,T3_M11,T4_M11,T5_M11,U1_M11,ZSPAN_M11,X0_M11,X2_M11,X1_M11
2023-10-21 05:00:00,SystemResetWarning,0831.1,5.00,000.00,028.5,027.2,000.0,036.8,030.1,10.0,0000.0,0009.33,0001.90,0000.89
2023-10-21 05:01:00,SystemResetWarning,0831.1,5.01,000.00,028.5,027.2,000.0,036.9,030.2,10.0,0000.0,0009.76,0001.93,0000.90
2023-10-21 05:02:00,SystemResetWarning,0831.1,5.00,000.00,028.5,027.2,000.0,036.9,030.2,10.0,0000.0,0010.03,0001.93,0000.89
2023-10-21 05:03:00,SystemResetWarning,0831.1,5.00,000.00,028.5,027.3,000.0,036.9,030.2,10.0,0000.0,0010.02,0001.89,0000.88
2023-10-21 05:04:00,SystemResetWarning,0831.1,5.00,000.00,028.5,027.3,000.0,036.9,030.2,10.0,0000.0,0009.51,0001.86,0000.88
2023-10-21 05:05:00,SystemResetWarning,0831.1,5.00,000.00,028.6,027.3,000.0,036.9,030.2,10.0,0000.0,0009.49,0001.91,0000.89
2023-10-21 05:06:00,SystemResetWarning,0831.1,5.00,000.00,028.6,027.3,000.0,036.9,030.2,10.0,0000.0,0009.19,0001.90,0000.89
2023-10-21 05:07:00,SystemResetWarning,0831.1,5.00,000.00,028.6,027.4,000.0,037.0,030.2,10.0,0000.0,0008.59,0001.87,0000.89
2023-10-21 05:08:00,SystemResetWarning,0831.1,5.01,000.00,028.6,027.4,000.0,037.0,030.3,10.0,0000.0,0008.86,0001.84,0000.88
2023-10-21 05:09:00,SystemResetWarning,0831.1,5.00,000.00,028.6,027.4,000.0,037.0,030.3,10.0,0000.0,0008.83,0001.80,0000.88
2023-10-21 05:10:00,SystemResetWarning,0831.2,5.00,000.00,028.7,027.4,000.0,037.0,030.3,10.0,0000.0,0007.60,0001.82,0000.89
2023-10-21 05:11:00,SystemResetWarning,0831.2,5.00,000.00,028.7,027.5,000.0,037.0,030.3,10.0,0000.0,0007.54,0001.77,0000.89
2023-10-21 05:12:00,SystemResetWarning,0831.2,5.00,000.00,028.7,027.5,000.0,037.0,030.3,10.0,0000.0,0007.02,0001.71,0000.88
2023-10-21 05:13:00,SystemResetWarning,0831.1,5.00,000.00,028.7,027.5,000.0,037.1,030.4,10.0,0000.0,0006.73,0001.72,0000.88
2023-10-21 05:14:00,SystemResetWarning,0831.1,5.00,000.00,028.7,027.5,000.0,037.1,030.4,10.0,0000.0,0006.60,0001.74,0000.89
2023-10-21 05:15:00,SystemResetWarning,0831.1,5.00,000.00,028.7,027.5,000.0,037.1,030.4,10.0,0000.0,0006.55,0001.74,0000.89
2023-10-21 05:16:00,SystemResetWarning,0831.2,5.00,000.00,028.8,027.5,000.0,037.1,030.4,9.9,0000.0,0006.46,0001.71,0000.89
2023-10-21 05:17:00,SystemResetWarning,0831.1,5.00,000.00,028.8,027.5,000.0,037.1,030.4,10.0,0000.0,0006.84,0001.68,0000.89
2023-10-21 05:18:00,SystemResetWarning,0831.1,4.99,000.00,028.8,027.5,000.0,037.1,030.4,9.9,0000.0,0006.62,0001.68,0000.89
2023-10-21 05:19:00,SystemResetWarning,0831.1,5.00,000.00,028.8,027.5,000.0,037.2,030.4,9.9,0000.0,0005.93,0001.70,0000.89
2023-10-21 05:20:00,SystemResetWarning,0831.1,5.00,000.00,028.8,027.6,000.0,037.2,030.4,9.9,0000.0,0005.57,0001.77,0000.89
2023-10-21 05:21:00,SystemResetWarning,0831.1,5.00,000.00,028.8,027.4,000.0,037.2,030.4,9.9,0000.0,0006.13,0001.77,0000.89
2023-10-21 05:22:00,SystemResetWarning,0831.1,4.99,000.00,028.8,025.5,000.0,037.1,030.3,9.9,0000.0,0006.39,0001.76,0000.88
2023-10-21 05:23:00,SystemResetWarning,0831.0,5.01,000.00,028.7,024.3,000.0,037.0,030.1,9.9,0000.0,0006.40,0001.77,0000.89
2023-10-21 05:24:00,SystemResetWarning,0830.9,5.01,000.00,028.6,024.2,000.0,037.0,029.9,10.0,0000.0,0007.44,0001.78,0000.90
2023-10-21 05:25:00,SystemResetWarning,0830.9,4.99,000.00,028.4,024.5,000.0,037.0,029.8,10.1,0000.0,0007.77,0001.80,0000.90
2023-10-21 05:26:00,SystemResetWarning,0831.0,5.01,000.00,028.4,024.9,000.0,037.0,029.8,10.1,0000.0,0008.04,0001.85,0000.91
2023-10-21 05:27:00,SystemResetWarning,0831.0,5.01,000.00,028.3,025.3,000.0,037.0,029.9,10.1,0000.0,0008.06,0001.84,0000.91
2023-10-21 05:28:00,SystemResetWarning,0830.9,4.99,000.00,028.3,025.6,000.0,037.0,029.9,10.2,0000.0,0008.04,0001.81,0000.91
2023-10-21 05:29:00,SystemResetWarning,0830.9,4.99,000.00,028.3,025.9,000.0,036.9,029.9,10.2,0000.0,0008.18,0001.82,0000.91
2023-10-21 05:30:00,SystemResetWarning,0830.9,5.00,000.00,028.3,026.1,000.0,036.9,029.9,10.2,0000.0,0008.83,0001.87,0000.91
2023-10-21 05:31:00,SystemResetWarning,0831.0,5.00,000.00,028.3,026.3,000.0,036.9,029.9,10.2,0000.0,0009.10,0001.84,0000.91
2023-10-21 05:32:00,SystemResetWarning,0830.9,5.00,000.00,028.3,026.5,000.0,036.9,030.0,10.2,0000.0,0008.81,0001.80,0000.91
2023-10-21 05:33:00,SystemResetWarning,0830.9,5.01,000.00,028.3,026.6,000.0,036.9,030.0,10.2,0000.0,0008.65,0001.81,0000.91
2023-10-21 05:34:00,SystemResetWarning,0830.9,5.01,000.00,028.3,026.7,000.0,036.9,030.0,10.1,0000.0,0008.71,0001.85,0000.91
2023-10-21 05:35:00,SystemResetWarning,0830.9,5.00,000.00,028.3,026.8,000.0,036.9,030.0,10.1,0000.0,0008.23,0001.84,0000.90
2023-10-21 05:36:00,SystemResetWarning,0831.0,4.99,000.00,028.4,026.9,000.0,036.9,030.0,10.2,0000.0,0007.96,0001.78,0000.90
2023-10-21 05:37:00,SystemResetWarning,0831.0,4.99,000.00,028.4,026.9,000.0,036.9,030.1,10.2,0000.0,0007.64,0001.74,0000.89
2023-10-21 05:38:00,SystemResetWarning,0830.9,4.99,000.00,028.4,027.0,000.0,036.9,030.1,10.1,0000.0,0008.07,0001.74,0000.90
2023-10-21 05:39:00,SystemResetWarning,0830.9,5.00,000.00,028.4,027.0,000.0,036.9,030.1,10.1,0000.0,0008.24,0001.81,0000.90
2023-10-21 05:40:00,SystemResetWarning,0830.9,5.00,000.00,028.4,027.1,000.0,036.9,030.1,10.1,0000.0,0007.88,0001.85,0000.91
2023-10-21 05:41:00,SystemResetWarning,0830.9,5.00,000.00,028.5,027.1,000.0,036.9,030.1,10.1,0000.0,0007.12,0001.84,0000.91
2023-10-21 05:42:00,SystemResetWarning,0830.9,5.00,000.00,028.5,027.2,000.0,036.9,030.1,10.1,0000.0,0006.02,0001.80,0000.91
2023-10-21 05:43:00,SystemResetWarning,0830.9,5.00,000.00,028.5,027.2,000.0,036.9,030.1,10.1,0000.0,0006.12,0001.86,0000.92
2023-10-21 05:44:00,SystemResetWarning,0830.9,5.00,000.00,028.5,027.2,000.0,036.9,030.2,10.2,0000.0,0006.33,0001.93,0000.92
2023-10-21 05:45:00,SystemResetWarning,0830.9,5.00,000.00,028.5,027.2,000.0,036.9,030.2,10.2,0000.0,0006.89,0001.95,0000.92
2023-10-21 05:46:00,SystemResetWarning,0830.9,5.01,000.00,028.6,027.3,000.0,036.9,030.2,10.2,0000.0,0006.97,0001.91,0000.93
2023-10-21 05:47:00,SystemResetWarning,0830.9,5.00,000.00,028.6,027.3,000.0,037.0,030.2,10.1,0000.0,0006.37,0001.90,0000.94
2023-10-21 05:48:00,SystemResetWarning,0831.0,5.00,000.00,028.6,027.3,000.0,037.0,030.2,10.1,0000.0,0006.65,0001.94,0000.94
2023-10-21 05:49:00,SystemResetWarning,0831.0,5.00,000.00,028.6,027.3,000.0,037.0,030.2,10.1,0000.0,0005.79,0001.98,0000.94
2023-10-21 05:50:00,SystemResetWarning,0830.9,5.00,000.00,028.6,027.3,000.0,037.0,030.2,10.0,0000.0,0005.31,0001.95,0000.95
2023-10-21 05:51:00,SystemResetWarning,0830.9,5.00,000.00,028.6,027.3,000.0,037.0,030.3,10.0,0000.0,0005.93,0002.04,0000.96
2023-10-21 05:52:00,SystemResetWarning,0830.9,5.00,000.00,028.7,027.4,000.0,037.0,030.3,10.0,0000.0,0006.09,0002.06,0000.96
2023-10-21 05:53:00,SystemResetWarning,0830.9,5.00,000.00,028.7,027.4,000.0,037.0,030.3,10.0,0000.0,0006.30,0002.10,0000.97
2023-10-21 05:54:00,SystemResetWarning,0830.9,5.00,000.00,028.7,027.4,000.0,037.1,030.3,10.0,0000.0,0006.01,0002.00,0000.97
2023-10-21 05:55:00,SystemResetWarning,0830.9,5.00,000.00,028.7,027.4,000.0,037.1,030.3,10.0,0000.0,0007.38,0001.92,0000.97
2023-10-21 05:56:00,SystemResetWarning,0830.9,5.00,000.00,028.7,027.4,000.0,037.1,030.3,10.0,0000.0,0007.31,0001.91,0000.98
2023-10-21 05:57:00,SystemResetWarning,0830.9,5.00,000.00,028.7,027.4,000.0,037.1,030.3,10.0,0000.0,0007.80,0002.00,0000.98
2023-10-21 05:58:00,SystemResetWarning,0830.9,5.01,000.00,028.7,027.4,000.0,037.1,030.4,10.0,0000.0,0008.09,0002.01,0000.97
2023-10-21 05:59:00,SystemResetWarning,0830.9,5.01,000.00,028.8,027.4,000.0,037.1,030.3,10.0,0000.0,0007.91,0001.97,0000.97
